| time (UTC) | temp F | wind direction | speed knots | gust knots | rain 1hr in | rain 24hr in | rain mn in | humidity % | barometer mb |
| 20260510052005 | 61 | 239 | 0.0 | 0.0 | 0.00 | 0.00 | 0.00 | 93 | 1012.8 |
| 20260510051505 | 61 | 239 | 0.0 | 0.0 | 0.00 | 0.00 | 0.00 | 92 | 1012.8 |
| 20260510051005 | 61 | 239 | 0.0 | 0.0 | 0.00 | 0.00 | 0.00 | 92 | 1012.8 |
| 20260510050506 | 62 | 239 | 0.0 | 0.0 | 0.00 | 0.00 | 0.00 | 92 | 1012.8 |
| 20260510050005 | 62 | 239 | 0.0 | 0.0 | 0.00 | 0.00 | 0.00 | 92 | 1012.8 |
| 20260510045005 | 62 | 239 | 0.0 | 0.0 | 0.00 | 0.00 | 0.00 | 92 | 1012.8 |
| 20260510044505 | 62 | 239 | 0.0 | 0.0 | 0.00 | 0.00 | 0.00 | 92 | 1012.8 |
| 20260510044005 | 62 | 239 | 0.0 | 0.0 | 0.00 | 0.00 | 0.00 | 92 | 1012.8 |
| 20260510043505 | 62 | 239 | 0.0 | 0.0 | 0.00 | 0.00 | 0.00 | 92 | 1012.8 |
| 20260510043006 | 63 | 239 | 0.0 | 0.0 | 0.00 | 0.00 | 0.00 | 92 | 1012.8 |
| 20260510042005 | 63 | 239 | 0.0 | 0.0 | 0.00 | 0.00 | 0.00 | 92 | 1012.8 |
| 20260510041505 | 63 | 239 | 0.0 | 0.0 | 0.00 | 0.00 | 0.00 | 92 | 1012.8 |
| 20260510041006 | 63 | 239 | 0.0 | 0.0 | 0.00 | 0.00 | 0.00 | 92 | 1012.8 |
| 20260510040005 | 63 | 239 | 0.0 | 0.0 | 0.00 | 0.00 | 0.00 | 92 | 1012.8 |
| 20260510034505 | 63 | 239 | 0.0 | 0.0 | 0.00 | 0.00 | 0.00 | 92 | 1012.8 |
| 20260510034005 | 63 | 239 | 0.0 | 0.0 | 0.00 | 0.00 | 0.00 | 92 | 1012.8 |
| 20260510033505 | 63 | 239 | 0.0 | 0.0 | 0.00 | 0.00 | 0.00 | 92 | 1012.8 |
| 20260510033005 | 63 | 239 | 0.0 | 0.0 | 0.00 | 0.00 | 0.00 | 92 | 1012.8 |
| 20260510032506 | 63 | 239 | 0.0 | 0.0 | 0.00 | 0.00 | 0.00 | 91 | 1012.8 |
| 20260510032005 | 63 | 239 | 0.0 | 0.0 | 0.00 | 0.00 | 0.00 | 91 | 1012.8 |
| 20260510031505 | 63 | 239 | 0.0 | 0.0 | 0.00 | 0.00 | 0.00 | 91 | 1012.8 |
| 20260510031006 | 63 | 239 | 0.0 | 0.0 | 0.00 | 0.00 | 0.00 | 91 | 1012.8 |
| 20260510030505 | 64 | 239 | 0.0 | 0.0 | 0.00 | 0.00 | 0.00 | 91 | 1012.8 |
| 20260510030005 | 64 | 239 | 0.0 | 0.0 | 0.00 | 0.00 | 0.00 | 91 | 1012.8 |
| 20260510025505 | 64 | 239 | 0.0 | 0.0 | 0.00 | 0.00 | 0.00 | 91 | 1012.8 |
| 20260510025005 | 64 | 239 | 0.0 | 0.0 | 0.00 | 0.00 | 0.00 | 91 | 1012.8 |
| 20260510024005 | 64 | 178 | 0.0 | 0.0 | 0.00 | 0.00 | 0.00 | 90 | 1012.8 |
| 20260510023505 | 64 | 178 | 0.0 | 0.0 | 0.00 | 0.00 | 0.00 | 90 | 1012.8 |
| 20260510023005 | 64 | 178 | 0.0 | 0.0 | 0.00 | 0.00 | 0.00 | 90 | 1012.8 |
| 20260510022506 | 64 | 178 | 0.0 | 0.0 | 0.00 | 0.00 | 0.00 | 90 | 1012.8 |
| 20260510022005 | 64 | 178 | 0.0 | 0.0 | 0.00 | 0.00 | 0.00 | 90 | 1012.8 |
| 20260510021505 | 64 | 178 | 0.0 | 0.0 | 0.00 | 0.00 | 0.00 | 89 | 1012.8 |
| 20260510021005 | 65 | 178 | 0.0 | 0.0 | 0.00 | 0.00 | 0.00 | 89 | 1012.8 |
| 20260510020005 | 65 | 178 | 0.0 | 0.0 | 0.00 | 0.00 | 0.00 | 89 | 1012.4 |
| 20260510015506 | 65 | 157 | 0.0 | 0.0 | 0.00 | 0.00 | 0.00 | 89 | 1012.4 |
| 20260510015005 | 65 | 157 | 0.0 | 0.0 | 0.00 | 0.00 | 0.00 | 88 | 1012.4 |
| 20260510014505 | 65 | 157 | 0.0 | 0.0 | 0.00 | 0.00 | 0.00 | 88 | 1012.4 |
| 20260510014005 | 65 | 157 | 0.0 | 0.0 | 0.00 | 0.00 | 0.00 | 88 | 1012.4 |
| 20260510013006 | 65 | 226 | 0.0 | 0.0 | 0.00 | 0.00 | 0.00 | 88 | 1012.4 |
| 20260510012505 | 66 | 146 | 0.0 | 0.0 | 0.00 | 0.00 | 0.00 | 87 | 1012.4 |
| 20260510012005 | 66 | 146 | 0.0 | 0.0 | 0.00 | 0.00 | 0.00 | 87 | 1012.4 |
| 20260510011505 | 66 | 146 | 0.0 | 0.0 | 0.00 | 0.00 | 0.00 | 87 | 1012.4 |
| 20260510011005 | 66 | 146 | 0.0 | 0.0 | 0.00 | 0.00 | 0.00 | 86 | 1012.4 |
| 20260510010006 | 66 | 159 | 0.0 | 0.9 | 0.00 | 0.00 | 0.00 | 86 | 1012.1 |
| 20260510005505 | 66 | 147 | 0.9 | 2.6 | 0.00 | 0.00 | 0.00 | 86 | 1012.1 |
| 20260510004505 | 66 | 136 | 0.0 | 1.7 | 0.00 | 0.00 | 0.00 | 86 | 1010.9 |
| 20260510004006 | 66 | 188 | 0.0 | 0.9 | 0.00 | 0.00 | 0.00 | 86 | 1010.9 |
| 20260510003505 | 66 | 198 | 0.0 | 0.9 | 0.00 | 0.00 | 0.00 | 86 | 1010.9 |
| 20260510003006 | 67 | 198 | 0.0 | 0.9 | 0.00 | 0.00 | 0.00 | 85 | 1010.9 |
| 20260510002504 | 67 | 198 | 0.0 | 0.0 | 0.00 | 0.00 | 0.00 | 85 | 1010.9 |
| 20260510002005 | 67 | 240 | 0.0 | 0.9 | 0.00 | 0.00 | 0.00 | 85 | 1010.9 |
| 20260510001006 | 68 | 240 | 0.0 | 0.0 | 0.00 | 0.00 | 0.00 | 83 | 1010.9 |
| 20260510000505 | 68 | 240 | 0.0 | 0.0 | 0.00 | 0.00 | 0.00 | 83 | 1010.9 |
| 20260510000006 | 68 | 240 | 0.0 | 0.0 | 0.00 | 0.00 | 0.00 | 82 | 1010.9 |
| 20260509235505 | 68 | 240 | 0.0 | 0.0 | 0.00 | 0.00 | 0.00 | 81 | 1010.9 |
| 20260509234506 | 69 | 240 | 0.0 | 0.0 | 0.00 | 0.00 | 0.00 | 80 | 1010.9 |
| 20260509234007 | 69 | 240 | 0.0 | 0.0 | 0.00 | 0.00 | 0.00 | 80 | 1010.9 |
| 20260509233505 | 69 | 240 | 0.0 | 0.0 | 0.00 | 0.00 | 0.00 | 79 | 1010.9 |
| 20260509233006 | 69 | 240 | 0.0 | 0.9 | 0.00 | 0.00 | 0.00 | 79 | 1010.9 |
| 20260509232506 | 69 | 240 | 0.0 | 0.9 | 0.00 | 0.00 | 0.00 | 79 | 1010.9 |
| 20260509232005 | 69 | 240 | 0.0 | 0.9 | 0.00 | 0.00 | 0.00 | 79 | 1010.9 |
| 20260509231005 | 70 | 240 | 0.0 | 1.7 | 0.00 | 0.00 | 0.00 | 77 | 1010.9 |
| 20260509230506 | 70 | 235 | 0.0 | 1.7 | 0.00 | 0.00 | 0.00 | 77 | 1010.9 |
| 20260509225506 | 70 | 179 | 0.0 | 0.9 | 0.00 | 0.00 | 0.00 | 75 | 1010.9 |
| 20260509225005 | 70 | 263 | 0.9 | 1.7 | 0.00 | 0.00 | 0.00 | 75 | 1010.9 |
| 20260509224506 | 71 | 261 | 0.0 | 1.7 | 0.00 | 0.00 | 0.00 | 75 | 1010.9 |
| 20260509223506 | 71 | 107 | 0.0 | 0.9 | 0.00 | 0.00 | 0.00 | 75 | 1010.9 |
| 20260509223005 | 71 | 107 | 0.0 | 1.7 | 0.00 | 0.00 | 0.00 | 75 | 1010.9 |
| 20260509222505 | 71 | 94 | 0.0 | 1.7 | 0.00 | 0.00 | 0.00 | 74 | 1010.9 |
| 20260509222005 | 71 | 141 | 0.9 | 1.7 | 0.00 | 0.00 | 0.00 | 74 | 1010.9 |
| 20260509221505 | 71 | 164 | 0.0 | 1.7 | 0.00 | 0.00 | 0.00 | 73 | 1010.9 |
| 20260509221006 | 71 | 115 | 0.0 | 1.7 | 0.00 | 0.00 | 0.00 | 73 | 1010.9 |
| 20260509220006 | 72 | 227 | 0.0 | 1.7 | 0.00 | 0.00 | 0.00 | 72 | 1010.9 |
| 20260509215005 | 72 | 195 | 0.0 | 0.9 | 0.00 | 0.00 | 0.00 | 72 | 1010.9 |
| 20260509214505 | 72 | 98 | 0.0 | 0.9 | 0.00 | 0.00 | 0.00 | 71 | 1010.9 |
| 20260509214006 | 72 | 116 | 0.0 | 0.9 | 0.00 | 0.00 | 0.00 | 71 | 1010.9 |
| 20260509213505 | 72 | 190 | 0.0 | 1.7 | 0.00 | 0.00 | 0.00 | 70 | 1010.9 |
| 20260509213005 | 73 | 118 | 0.9 | 2.6 | 0.00 | 0.00 | 0.00 | 71 | 1011.0 |
| 20260509212506 | 73 | 122 | 0.0 | 2.6 | 0.00 | 0.00 | 0.00 | 70 | 1011.0 |
| 20260509212005 | 73 | 149 | 0.0 | 1.7 | 0.00 | 0.00 | 0.00 | 70 | 1011.0 |
| 20260509211505 | 73 | 218 | 0.9 | 2.6 | 0.00 | 0.00 | 0.00 | 70 | 1011.0 |
| 20260509211005 | 73 | 160 | 0.0 | 1.7 | 0.00 | 0.00 | 0.00 | 70 | 1011.0 |
| 20260509210504 | 73 | 251 | 0.0 | 1.7 | 0.00 | 0.00 | 0.00 | 70 | 1011.0 |
| 20260509210005 | 72 | 127 | 0.0 | 1.7 | 0.00 | 0.00 | 0.00 | 69 | 1011.0 |
| 20260509205504 | 72 | 240 | 0.9 | 1.7 | 0.00 | 0.00 | 0.00 | 70 | 1011.0 |
| 20260509205006 | 72 | 194 | 0.0 | 2.6 | 0.00 | 0.00 | 0.00 | 70 | 1011.0 |
| 20260509204505 | 73 | 233 | 0.0 | 1.7 | 0.00 | 0.00 | 0.00 | 70 | 1011.0 |
| 20260509204006 | 72 | 146 | 0.0 | 1.7 | 0.00 | 0.00 | 0.00 | 71 | 1011.0 |
| 20260509203505 | 73 | 280 | 0.9 | 2.6 | 0.00 | 0.00 | 0.00 | 67 | 1011.0 |
| 20260509202504 | 73 | 228 | 0.9 | 2.6 | 0.00 | 0.00 | 0.00 | 70 | 1011.0 |
| 20260509202005 | 73 | 253 | 0.9 | 2.6 | 0.00 | 0.00 | 0.00 | 69 | 1011.0 |
| 20260509201505 | 72 | 48 | 0.0 | 0.9 | 0.00 | 0.00 | 0.00 | 70 | 1011.0 |
| 20260509200505 | 73 | 158 | 0.0 | 1.7 | 0.00 | 0.00 | 0.00 | 69 | 1011.0 |
| 20260509200005 | 73 | 265 | 0.0 | 2.6 | 0.00 | 0.00 | 0.00 | 69 | 1011.0 |
| 20260509195506 | 73 | 154 | 0.0 | 0.9 | 0.00 | 0.00 | 0.00 | 68 | 1011.0 |
| 20260509195005 | 73 | 152 | 0.9 | 4.3 | 0.00 | 0.00 | 0.00 | 68 | 1011.6 |
| 20260509194506 | 73 | 255 | 0.9 | 4.3 | 0.00 | 0.00 | 0.00 | 69 | 1011.6 |
| 20260509194007 | 72 | 319 | 0.9 | 2.6 | 0.00 | 0.00 | 0.00 | 68 | 1011.6 |
| 20260509193505 | 72 | 177 | 0.0 | 1.7 | 0.00 | 0.00 | 0.00 | 71 | 1011.6 |
| 20260509193005 | 72 | 201 | 0.0 | 1.7 | 0.00 | 0.00 | 0.00 | 70 | 1011.6 |
| 20260509192505 | 72 | 313 | 0.0 | 1.7 | 0.00 | 0.00 | 0.00 | 71 | 1011.6 |
| 20260509192005 | 72 | 306 | 0.0 | 1.7 | 0.00 | 0.00 | 0.00 | 72 | 1011.6 |
| 20260509191504 | 72 | 107 | 0.9 | 1.7 | 0.00 | 0.00 | 0.00 | 72 | 1011.6 |
| 20260509191005 | 71 | 290 | 0.9 | 1.7 | 0.00 | 0.00 | 0.00 | 70 | 1011.6 |
| 20260509190006 | 72 | 273 | 0.9 | 2.6 | 0.00 | 0.00 | 0.00 | 69 | 1011.6 |
| 20260509185005 | 72 | 188 | 0.0 | 1.7 | 0.00 | 0.00 | 0.00 | 69 | 1011.6 |
| 20260509184505 | 72 | 135 | 1.7 | 2.6 | 0.00 | 0.00 | 0.00 | 70 | 1011.6 |
| 20260509184006 | 72 | 32 | 0.9 | 1.7 | 0.00 | 0.00 | 0.00 | 69 | 1011.6 |
| 20260509183505 | 72 | 260 | 0.0 | 1.7 | 0.00 | 0.00 | 0.00 | 69 | 1011.6 |
| 20260509183006 | 71 | 252 | 1.7 | 2.6 | 0.00 | 0.00 | 0.00 | 67 | 1011.6 |
| 20260509182505 | 71 | 267 | 0.9 | 2.6 | 0.00 | 0.00 | 0.00 | 69 | 1011.6 |
| 20260509182005 | 71 | 135 | 0.9 | 2.6 | 0.00 | 0.00 | 0.00 | 70 | 1011.6 |
| 20260509181505 | 71 | 213 | 0.9 | 2.6 | 0.00 | 0.00 | 0.00 | 71 | 1011.6 |
| 20260509181005 | 71 | 170 | 0.0 | 5.2 | 0.00 | 0.00 | 0.00 | 71 | 1011.6 |
| 20260509180005 | 70 | 295 | 0.9 | 4.3 | 0.00 | 0.00 | 0.00 | 72 | 1011.6 |
| 20260509175505 | 70 | 275 | 0.9 | 2.6 | 0.00 | 0.00 | 0.00 | 71 | 1011.6 |
| 20260509175005 | 70 | 159 | 0.9 | 2.6 | 0.00 | 0.00 | 0.00 | 72 | 1011.6 |
| 20260509174506 | 70 | 147 | 0.9 | 1.7 | 0.00 | 0.00 | 0.00 | 75 | 1011.6 |
| 20260509174005 | 69 | 274 | 0.0 | 2.6 | 0.00 | 0.00 | 0.00 | 74 | 1011.6 |
| 20260509173506 | 70 | 302 | 0.9 | 1.7 | 0.00 | 0.00 | 0.00 | 73 | 1011.6 |
| 20260509172505 | 69 | 276 | 1.7 | 4.3 | 0.00 | 0.00 | 0.00 | 74 | 1011.6 |
| 20260509172005 | 69 | 28 | 0.9 | 2.6 | 0.00 | 0.00 | 0.00 | 76 | 1011.6 |
| 20260509171505 | 68 | 216 | 1.7 | 6.1 | 0.00 | 0.00 | 0.00 | 77 | 1011.6 |
| 20260509171006 | 68 | 228 | 0.9 | 4.3 | 0.00 | 0.00 | 0.00 | 80 | 1011.6 |
| 20260509170505 | 67 | 236 | 0.0 | 2.6 | 0.00 | 0.00 | 0.00 | 80 | 1011.6 |
| 20260509165005 | 67 | 227 | 0.9 | 2.6 | 0.00 | 0.00 | 0.00 | 81 | 1012.2 |
| 20260509164005 | 66 | 306 | 1.7 | 2.6 | 0.00 | 0.00 | 0.00 | 82 | 1012.2 |
| 20260509163505 | 66 | 229 | 0.9 | 2.6 | 0.00 | 0.00 | 0.00 | 84 | 1012.2 |
| 20260509163006 | 65 | 227 | 0.9 | 2.6 | 0.00 | 0.00 | 0.00 | 86 | 1012.2 |
| 20260509162005 | 64 | 273 | 1.7 | 7.0 | 0.00 | 0.00 | 0.00 | 87 | 1012.2 |
| 20260509161504 | 64 | 305 | 1.7 | 2.6 | 0.00 | 0.00 | 0.00 | 88 | 1012.2 |
| 20260509160505 | 64 | 256 | 0.9 | 4.3 | 0.00 | 0.00 | 0.00 | 89 | 1012.2 |
| 20260509160005 | 64 | 241 | 2.6 | 5.2 | 0.00 | 0.00 | 0.00 | 90 | 1012.2 |
| 20260509155504 | 63 | 243 | 1.7 | 2.6 | 0.00 | 0.00 | 0.00 | 91 | 1012.2 |
| 20260509155005 | 63 | 297 | 1.7 | 6.1 | 0.00 | 0.00 | 0.00 | 91 | 1012.5 |
| 20260509154505 | 63 | 226 | 0.0 | 2.6 | 0.00 | 0.00 | 0.00 | 92 | 1012.5 |
| 20260509154006 | 63 | 247 | 0.9 | 2.6 | 0.00 | 0.00 | 0.00 | 92 | 1012.5 |
| 20260509153505 | 63 | 248 | 0.9 | 2.6 | 0.00 | 0.00 | 0.00 | 92 | 1012.5 |
| 20260509153005 | 63 | 272 | 0.9 | 2.6 | 0.00 | 0.00 | 0.00 | 92 | 1012.5 |
| 20260509152505 | 63 | 259 | 0.0 | 2.6 | 0.00 | 0.00 | 0.00 | 92 | 1012.5 |
| 20260509152004 | 63 | 263 | 2.6 | 4.3 | 0.00 | 0.00 | 0.00 | 92 | 1012.5 |
| 20260509151506 | 63 | 276 | 1.7 | 2.6 | 0.00 | 0.00 | 0.00 | 93 | 1012.5 |
| 20260509151006 | 62 | 283 | 0.9 | 2.6 | 0.00 | 0.00 | 0.00 | 93 | 1012.5 |
| 20260509150504 | 62 | 272 | 0.9 | 2.6 | 0.00 | 0.00 | 0.00 | 93 | 1012.5 |
| 20260509150004 | 62 | 255 | 1.7 | 2.6 | 0.00 | 0.00 | 0.00 | 93 | 1012.5 |
| 20260509145006 | 62 | 143 | 0.9 | 2.6 | 0.00 | 0.00 | 0.00 | 93 | 1012.5 |
| 20260509144506 | 62 | 187 | 0.9 | 2.6 | 0.00 | 0.00 | 0.00 | 93 | 1012.5 |
| 20260509144006 | 62 | 231 | 0.9 | 2.6 | 0.00 | 0.00 | 0.00 | 93 | 1012.5 |
| 20260509143505 | 62 | 202 | 0.0 | 1.7 | 0.00 | 0.00 | 0.00 | 93 | 1012.5 |
| 20260509143006 | 62 | 202 | 0.0 | 1.7 | 0.00 | 0.00 | 0.00 | 93 | 1012.5 |
| 20260509142505 | 62 | 202 | 0.0 | 0.9 | 0.00 | 0.00 | 0.00 | 92 | 1012.5 |
| 20260509141505 | 62 | 141 | 0.9 | 1.7 | 0.00 | 0.00 | 0.00 | 92 | 1012.5 |
| 20260509141005 | 62 | 257 | 0.0 | 2.6 | 0.00 | 0.00 | 0.00 | 92 | 1012.5 |
| 20260509140006 | 62 | 196 | 0.9 | 1.7 | 0.00 | 0.00 | 0.00 | 92 | 1012.5 |
| 20260509135506 | 62 | 140 | 0.9 | 1.7 | 0.00 | 0.00 | 0.00 | 92 | 1012.5 |
| 20260509135006 | 61 | 146 | 0.0 | 1.7 | 0.00 | 0.00 | 0.00 | 92 | 1012.5 |
| 20260509134505 | 61 | 165 | 1.7 | 4.3 | 0.00 | 0.00 | 0.00 | 92 | 1012.5 |
| 20260509134005 | 61 | 206 | 0.0 | 1.7 | 0.00 | 0.00 | 0.00 | 92 | 1012.5 |
| 20260509133505 | 61 | 192 | 0.0 | 0.9 | 0.00 | 0.00 | 0.00 | 92 | 1012.5 |
| 20260509133005 | 61 | 164 | 0.9 | 2.6 | 0.00 | 0.00 | 0.00 | 92 | 1012.5 |
| 20260509132505 | 61 | 204 | 0.0 | 2.6 | 0.00 | 0.00 | 0.00 | 92 | 1012.5 |
| 20260509132005 | 61 | 253 | 0.0 | 2.6 | 0.00 | 0.00 | 0.00 | 92 | 1012.5 |
| 20260509131505 | 61 | 256 | 1.7 | 4.3 | 0.00 | 0.00 | 0.00 | 92 | 1012.5 |
| 20260509131006 | 61 | 275 | 0.0 | 4.3 | 0.00 | 0.00 | 0.00 | 92 | 1012.5 |
| 20260509130505 | 61 | 232 | 0.9 | 2.6 | 0.00 | 0.00 | 0.00 | 92 | 1012.5 |
| 20260509130005 | 61 | 88 | 0.0 | 1.7 | 0.00 | 0.00 | 0.00 | 92 | 1012.5 |
| 20260509125504 | 61 | 208 | 0.9 | 1.7 | 0.00 | 0.00 | 0.00 | 93 | 1012.5 |
| 20260509125005 | 61 | 194 | 0.9 | 4.3 | 0.00 | 0.00 | 0.00 | 93 | 1012.5 |
| 20260509124505 | 61 | 150 | 0.0 | 0.9 | 0.00 | 0.00 | 0.00 | 93 | 1012.5 |
| 20260509124007 | 60 | 222 | 0.0 | 1.7 | 0.00 | 0.00 | 0.00 | 93 | 1012.5 |
| 20260509123505 | 60 | 287 | 0.0 | 2.6 | 0.00 | 0.00 | 0.00 | 93 | 1012.5 |
| 20260509122505 | 60 | 196 | 0.0 | 0.9 | 0.00 | 0.00 | 0.00 | 93 | 1012.5 |
| 20260509122006 | 60 | 196 | 0.0 | 0.9 | 0.00 | 0.00 | 0.00 | 93 | 1012.5 |
| 20260509121505 | 60 | 196 | 0.0 | 0.9 | 0.00 | 0.00 | 0.00 | 93 | 1012.5 |
| 20260509121005 | 60 | 279 | 0.0 | 0.9 | 0.00 | 0.00 | 0.00 | 93 | 1012.5 |
| 20260509120505 | 60 | 278 | 0.0 | 0.0 | 0.00 | 0.00 | 0.00 | 93 | 1012.5 |
| 20260509115505 | 59 | 278 | 0.9 | 1.7 | 0.00 | 0.00 | 0.00 | 93 | 1012.5 |
| 20260509115005 | 59 | 278 | 0.0 | 2.6 | 0.00 | 0.00 | 0.00 | 93 | 1012.5 |
| 20260509114005 | 59 | 246 | 0.0 | 0.9 | 0.00 | 0.00 | 0.00 | 93 | 1012.5 |
| 20260509113505 | 59 | 246 | 0.0 | 0.9 | 0.00 | 0.00 | 0.00 | 93 | 1012.5 |
| 20260509113004 | 59 | 246 | 0.9 | 1.7 | 0.00 | 0.00 | 0.00 | 93 | 1012.5 |
| 20260509112005 | 59 | 242 | 0.0 | 0.9 | 0.00 | 0.00 | 0.00 | 93 | 1012.5 |
| 20260509111505 | 59 | 242 | 0.0 | 0.9 | 0.00 | 0.00 | 0.00 | 93 | 1012.5 |
| 20260509111005 | 59 | 242 | 0.9 | 2.6 | 0.00 | 0.00 | 0.00 | 93 | 1012.5 |
| 20260509110506 | 59 | 291 | 0.0 | 1.7 | 0.00 | 0.00 | 0.00 | 93 | 1012.5 |
| 20260509110005 | 59 | 291 | 0.0 | 1.7 | 0.00 | 0.00 | 0.00 | 93 | 1012.5 |
| 20260509105506 | 59 | 291 | 0.0 | 0.9 | 0.00 | 0.00 | 0.00 | 93 | 1012.5 |
| 20260509105005 | 59 | 291 | 0.0 | 0.9 | 0.00 | 0.00 | 0.00 | 93 | 1012.5 |
| 20260509103505 | 59 | 286 | 0.9 | 2.6 | 0.00 | 0.00 | 0.00 | 93 | 1012.5 |
| 20260509103007 | 59 | 273 | 0.0 | 1.7 | 0.00 | 0.00 | 0.00 | 93 | 1012.5 |
| 20260509102505 | 59 | 272 | 0.9 | 1.7 | 0.00 | 0.00 | 0.00 | 93 | 1012.5 |
| 20260509102005 | 59 | 130 | 0.9 | 1.7 | 0.00 | 0.00 | 0.00 | 93 | 1012.5 |
| 20260509101505 | 59 | 181 | 0.9 | 1.7 | 0.00 | 0.00 | 0.00 | 93 | 1012.5 |
| 20260509101005 | 59 | 234 | 0.9 | 2.6 | 0.00 | 0.00 | 0.00 | 93 | 1012.5 |
| 20260509100006 | 59 | 197 | 0.0 | 1.7 | 0.00 | 0.00 | 0.00 | 93 | 1012.5 |
| 20260509095506 | 58 | 263 | 0.9 | 2.6 | 0.00 | 0.00 | 0.00 | 93 | 1012.5 |
| 20260509095006 | 58 | 209 | 0.0 | 0.9 | 0.00 | 0.00 | 0.00 | 93 | 1012.5 |
| 20260509094505 | 58 | 216 | 0.0 | 1.7 | 0.00 | 0.00 | 0.00 | 93 | 1012.5 |
| 20260509094005 | 58 | 288 | 0.9 | 1.7 | 0.00 | 0.00 | 0.00 | 93 | 1012.5 |
| 20260509093506 | 58 | 245 | 0.9 | 1.7 | 0.00 | 0.00 | 0.00 | 93 | 1012.5 |
| 20260509093006 | 57 | 243 | 0.9 | 2.6 | 0.00 | 0.00 | 0.00 | 93 | 1012.5 |
| 20260509092505 | 57 | 130 | 0.0 | 0.9 | 0.00 | 0.00 | 0.00 | 93 | 1012.5 |
| 20260509092006 | 57 | 146 | 0.0 | 1.7 | 0.00 | 0.00 | 0.00 | 93 | 1012.5 |
| 20260509091505 | 57 | 223 | 0.0 | 0.0 | 0.00 | 0.00 | 0.00 | 93 | 1012.5 |
| 20260509090505 | 56 | 148 | 0.0 | 0.0 | 0.00 | 0.00 | 0.00 | 93 | 1012.5 |
| 20260509090006 | 56 | 148 | 0.0 | 0.0 | 0.00 | 0.00 | 0.00 | 93 | 1012.5 |
| 20260509085505 | 56 | 148 | 0.0 | 0.0 | 0.00 | 0.00 | 0.00 | 93 | 1012.5 |
| 20260509085005 | 56 | 148 | 0.0 | 0.0 | 0.00 | 0.00 | 0.00 | 93 | 1012.5 |
| 20260509084505 | 56 | 148 | 0.0 | 0.0 | 0.00 | 0.00 | 0.00 | 93 | 1012.5 |
| 20260509083506 | 55 | 148 | 0.0 | 0.9 | 0.00 | 0.00 | 0.00 | 93 | 1012.5 |
| 20260509083005 | 55 | 218 | 0.0 | 0.0 | 0.00 | 0.00 | 0.00 | 93 | 1012.5 |
| 20260509082505 | 55 | 218 | 0.0 | 0.0 | 0.00 | 0.00 | 0.00 | 93 | 1012.5 |
| 20260509081504 | 55 | 218 | 0.0 | 0.0 | 0.00 | 0.00 | 0.00 | 93 | 1012.5 |
| 20260509080505 | 55 | 218 | 0.0 | 0.0 | 0.00 | 0.00 | 0.00 | 93 | 1012.5 |
| 20260509080005 | 54 | 218 | 0.0 | 0.0 | 0.00 | 0.00 | 0.00 | 93 | 1012.5 |
| 20260509075505 | 54 | 218 | 0.0 | 0.0 | 0.00 | 0.00 | 0.00 | 93 | 1012.5 |
| 20260509075005 | 54 | 218 | 0.0 | 0.0 | 0.00 | 0.00 | 0.00 | 93 | 1012.5 |
| 20260509074505 | 54 | 218 | 0.0 | 0.0 | 0.00 | 0.00 | 0.00 | 93 | 1012.5 |
| 20260509074005 | 54 | 218 | 0.0 | 0.0 | 0.00 | 0.00 | 0.00 | 93 | 1012.5 |
| 20260509073505 | 54 | 218 | 0.0 | 0.0 | 0.00 | 0.00 | 0.00 | 93 | 1012.5 |
| 20260509073005 | 54 | 218 | 0.0 | 0.0 | 0.00 | 0.00 | 0.00 | 93 | 1012.5 |
| 20260509071506 | 54 | 218 | 0.0 | 0.0 | 0.00 | 0.00 | 0.00 | 93 | 1012.5 |
| 20260509071005 | 54 | 218 | 0.0 | 0.0 | 0.00 | 0.00 | 0.00 | 93 | 1012.5 |
| 20260509070505 | 54 | 218 | 0.0 | 0.0 | 0.00 | 0.00 | 0.00 | 93 | 1012.5 |
| 20260509070006 | 54 | 218 | 0.0 | 0.0 | 0.00 | 0.00 | 0.00 | 93 | 1012.5 |
| 20260509065506 | 54 | 218 | 0.0 | 0.0 | 0.00 | 0.00 | 0.00 | 93 | 1012.5 |
| 20260509065005 | 54 | 218 | 0.0 | 0.0 | 0.00 | 0.00 | 0.00 | 93 | 1012.5 |
| 20260509064506 | 54 | 218 | 0.0 | 0.0 | 0.00 | 0.00 | 0.00 | 93 | 1012.5 |
| 20260509064005 | 54 | 218 | 0.0 | 0.0 | 0.00 | 0.00 | 0.00 | 93 | 1012.5 |
| 20260509063506 | 54 | 218 | 0.0 | 0.0 | 0.00 | 0.00 | 0.00 | 93 | 1012.5 |
| 20260509063005 | 54 | 218 | 0.0 | 0.0 | 0.00 | 0.00 | 0.00 | 93 | 1012.5 |
| 20260509062006 | 55 | 218 | 0.0 | 0.0 | 0.00 | 0.00 | 0.00 | 93 | 1012.5 |
| 20260509061505 | 55 | 218 | 0.0 | 0.0 | 0.00 | 0.00 | 0.00 | 93 | 1012.5 |
| 20260509060505 | 55 | 218 | 0.0 | 0.0 | 0.00 | 0.00 | 0.00 | 93 | 1012.5 |
| 20260509060005 | 55 | 218 | 0.0 | 0.0 | 0.00 | 0.00 | 0.00 | 93 | 1012.5 |
| 20260509055506 | 55 | 218 | 0.0 | 0.0 | 0.00 | 0.00 | 0.00 | 93 | 1012.5 |
| 20260509055005 | 55 | 218 | 0.0 | 0.0 | 0.00 | 0.00 | 0.00 | 93 | 1012.5 |
| 20260509054505 | 55 | 218 | 0.0 | 0.0 | 0.00 | 0.00 | 0.00 | 93 | 1012.5 |
| 20260509054006 | 55 | 218 | 0.0 | 0.0 | 0.00 | 0.00 | 0.00 | 93 | 1012.5 |
| 20260509053506 | 55 | 218 | 0.0 | 0.0 | 0.00 | 0.00 | 0.00 | 93 | 1012.5 |
| 20260509053005 | 55 | 218 | 0.0 | 0.0 | 0.00 | 0.00 | 0.00 | 93 | 1012.5 |